This is the latest recevied weather packets stored in our database for station/object K0FJ-1. If no packets are shown the sender has not sent any weather packets the latest 10 day(s).
| Time | Temp. | Humidity | Pressure | Rain* | Wind** | Luminosity | Snow |
|---|---|---|---|---|---|---|---|
| 1787779203 | 32.22° C | 47% | 1021.4 hPa | 0 mm | - | - | - |
| 1787778903 | 31.67° C | 46% | 1021.4 hPa | 0 mm | - | - | - |
| 1787778603 | 32.22° C | 44% | 1021.4 hPa | 0 mm | - | - | - |
| 1787778303 | 32.22° C | 44% | 1021.5 hPa | 0 mm | - | - | - |
| 1787778003 | 32.22° C | 43% | 1021.5 hPa | 0 mm | - | - | - |
| 1787777703 | 32.22° C | 42% | 1021.6 hPa | 0 mm | - | - | - |
| 1787777403 | 32.22° C | 43% | 1021.7 hPa | 0 mm | - | - | - |
| 1787777103 | 32.22° C | 48% | 1021.7 hPa | 0 mm | - | - | - |
| 1787776803 | 32.22° C | 47% | 1021.8 hPa | 0 mm | - | - | - |
| 1787776503 | 31.67° C | 46% | 1021.8 hPa | 0 mm | - | - | - |
| 1787776203 | 31.11° C | 50% | 1021.9 hPa | 0 mm | - | - | - |
| 1787775903 | 31.11° C | 47% | 1022 hPa | 0 mm | - | - | - |
| 1787775603 | 31.11° C | 45% | 1022.1 hPa | 0 mm | - | - | - |
| 1787775003 | 31.11° C | 45% | 1022.3 hPa | 0 mm | - | - | - |
| 1787774703 | 31.67° C | 47% | 1022.4 hPa | 0 mm | - | - | - |
| 1787774403 | 31.67° C | 48% | 1022.3 hPa | 0 mm | - | - | - |
| 1787774103 | 31.67° C | 48% | 1022.4 hPa | 0 mm | - | - | - |
| 1787773803 | 31.67° C | 49% | 1022.6 hPa | 0 mm | - | - | - |
| 1787773503 | 32.22° C | 45% | 1022.6 hPa | 0 mm | - | - | - |
| 1787773203 | 32.22° C | 48% | 1022.6 hPa | 0 mm | - | - | - |
| 1787772903 | 32.22° C | 49% | 1022.8 hPa | 0 mm | - | - | - |
| 1787772603 | 31.67° C | 48% | 1022.8 hPa | 0 mm | - | - | - |
| 1787772303 | 31.67° C | 47% | 1022.9 hPa | 0 mm | - | - | - |
| 1787772003 | 31.67° C | 51% | 1022.9 hPa | 0 mm | - | - | - |
| 1787771703 | 31.11° C | 48% | 1022.9 hPa | 0 mm | - | - | - |
* Rain latest hour (hover to see other rain measurements)
** Current wind speed in m/s (hover to see current wind gust speed)